Location: 3 Angels Observatory
(30.5437°N, 88.5068°W)
Time: 21:50:28
(UTC-06:00)

Amateur Radio Satellites - All Passes

Search period start: 22 November 2017 21:20
Search period end: 23 November 2017 21:20
Location: 3 Angels Observatory, 30.5437°N, 88.5068°W

Satellite Date Start Highest point End Downlink Frequencies (MHz)
Time Altitude Azimuth
EO-88 22 Nov 21:23:37 21:27:12 69° 259° (WSW) 21:30:49 145.990 - 145.960
Max Valier Satellite 22 Nov 21:29:47 21:33:09 35° 261° (W) 21:36:31 145.860
LO-87 22 Nov 21:43:23 21:45:52 18° 72° (ENE) 21:48:21 145.935 - 145.965
NO-84 22 Nov 21:47:34 21:51:37 40° 46° (NE) 21:55:34 435.350 FM
SO-50 22 Nov 21:57:53 22:00:41 16° 308° (NW) 22:03:30 436.795
SRMSAT 22 Nov 22:07:16 22:09:52 13° 198° (SSW) 22:12:28 437.500
FO-29 22 Nov 22:07:21 22:12:22 19° 298° (WNW) 22:17:11 435.910
PCSat 22 Nov 22:10:10 22:13:40 18° 105° (ESE) 22:17:11 145.827
AIST 2D 22 Nov 22:14:41 22:16:49 15° 95° (E) 22:18:57 435.315
O/OREOS (USA 219) 22 Nov 22:15:22 22:18:56 22° 65° (ENE) 22:22:27 437.305
UNISAT 6 22 Nov 22:19:50 22:23:33 30° 287° (WNW) 22:27:14 437.425
TIGRISAT 22 Nov 22:23:40 22:27:22 29° 287° (WNW) 22:31:03 435.000
PRISM 22 Nov 22:44:55 22:48:55 47° 285° (WNW) 22:52:52 437.425
ESTCUBE 1 22 Nov 22:53:16 22:57:43 73° 258° (WSW) 23:02:12 437.505/2401.250
VELOX 1 22 Nov 23:06:46 23:09:58 20° 70° (ENE) 23:13:11 145.980
DUCHIFAT 1 22 Nov 23:11:09 23:14:10 19° 96° (E) 23:17:08 145.980
LO-87 22 Nov 23:16:28 23:19:05 19° 264° (W) 23:21:41 145.935 - 145.965
EO-79 22 Nov 23:20:10 23:23:59 34° 98° (E) 23:27:47 145.935-145.965
NANOSAT C BR1 22 Nov 23:22:12 23:25:55 31° 98° (E) 23:29:38 145.865
NO-84 22 Nov 23:25:45 23:28:40 18° 239° (WSW) 23:31:33 435.350 FM
POLYITAN 1 22 Nov 23:35:47 23:39:53 55° 100° (E) 23:43:59 437.675
AIST 2D 22 Nov 23:47:11 23:49:52 21° 287° (WNW) 23:52:33 435.315
DX 1 22 Nov 23:48:07 23:49:33 11° 67° (ENE) 23:51:01 434.975-435.025
SPROUT 22 Nov 23:48:14 23:52:31 75° 258° (WSW) 23:56:48 437.525
PCSat 22 Nov 23:51:28 23:56:37 46° 298° (WNW) 00:01:49 145.827
O/OREOS (USA 219) 22 Nov 23:54:33 23:58:12 24° 258° (WSW) 00:01:49 437.305
BUGSAT 1 22 Nov 23:57:00 23:59:01 14° 95° (E) 00:01:03 437.445
QB50P2 22 Nov 23:59:15 00:03:23 62° 284° (WNW) 00:07:30 145.880/145.840
UKube-1 23 Nov 00:24:21 00:27:23 19° 70° (ENE) 00:30:24 .
50 SAT 23 Nov 00:29:35 00:32:34 36° 75° (ENE) 00:35:34 437.505
Gurwin Techsat 1B 23 Nov 00:32:31 00:35:32 15° 94° (E) 00:38:30 435.225
VELOX 1 23 Nov 00:42:24 00:46:10 27° 262° (W) 00:49:58 145.980
DUCHIFAT 1 23 Nov 00:46:21 00:49:42 24° 288° (WNW) 00:53:03 145.980
EO-79 23 Nov 00:57:12 00:59:23 14° 291° (WNW) 01:01:34 145.935-145.965
NANOSAT C BR1 23 Nov 00:58:54 01:01:19 15° 291° (WNW) 01:03:42 145.865
DX 1 23 Nov 01:21:03 01:25:15 47° 260° (W) 01:29:29 434.975-435.025
RS-15 23 Nov 01:27:00 01:35:02 20° 38° (NE) 01:42:46 29.354- 29.394
Oscar 19 23 Nov 01:29:12 01:34:23 89° 284° (WNW) 01:39:34 437.125/150
BEESAT 3 23 Nov 01:29:30 01:33:26 78° 118° (ESE) 01:37:27 437.485
BUGSAT 1 23 Nov 01:30:51 01:34:24 30° 287° (WNW) 01:37:55 437.445
UKube-1 23 Nov 01:59:29 02:03:08 27° 262° (W) 02:06:50 .
BEESAT 23 Nov 02:03:24 02:07:40 33° 72° (ENE) 02:11:56 436.000
MOZHAYETS 4 23 Nov 02:07:40 02:12:04 49° 75° (ENE) 02:16:27
Gurwin Techsat 1B 23 Nov 02:10:31 02:15:38 49° 287° (WNW) 02:20:44 435.225
ITUPSAT 1 23 Nov 02:14:12 02:18:43 43° 73° (ENE) 02:23:14 437.325
CUBESAT XI-V 23 Nov 02:26:27 02:29:09 16° 69° (ENE) 02:31:51 437.345
M-CUBED/EXP-1 PRIME 23 Nov 02:28:04 02:32:37 55° 105° (ESE) 02:37:09 437.505
nSIGHT-1 23 Nov 02:40:30 02:43:21 29° 41° (NE) 02:46:11 .
BEESAT 2 23 Nov 02:45:57 02:49:49 49° 299° (WNW) 02:53:44 435.950
AO-7 23 Nov 03:03:57 03:12:08 57° 103° (ESE) 03:20:18 .
AO-85 23 Nov 03:12:43 03:16:33 78° 297° (WNW) 03:20:29 145.980
ITAMSAT 1 23 Nov 03:26:07 03:31:17 64° 102° (ESE) 03:36:25 435.822/435.867
ISS 23 Nov 03:30:53 03:34:09 84° 227° (SW) 03:37:23 437.550
RS-15 23 Nov 03:37:59 03:49:44 77° 62° (ENE) 04:00:50 29.354- 29.394
BEESAT 23 Nov 03:42:08 03:45:25 19° 264° (W) 03:48:44 436.000
YUBILEINY 23 Nov 03:42:26 03:48:09 20° 82° (E) 03:53:53 435.215
KKS-1 23 Nov 03:45:15 03:48:55 25° 71° (ENE) 03:52:36 437.445
MOZHAYETS 4 23 Nov 03:48:01 03:49:23 11° 267° (W) 03:50:46
ITUPSAT 1 23 Nov 03:54:08 03:56:39 14° 265° (W) 03:59:10 437.325
CUBESAT XI-V 23 Nov 04:01:53 04:06:08 38° 261° (W) 04:10:25 437.345
M-CUBED/EXP-1 PRIME 23 Nov 04:04:27 04:06:27 13° 297° (WNW) 04:08:29 437.505
STARS 23 Nov 04:04:37 04:07:14 15° 68° (ENE) 04:09:49 437.465
nSIGHT-1 23 Nov 04:17:25 04:19:21 15° 234° (SW) 04:21:17 .
DOVE 4 23 Nov 04:51:20 04:56:25 84° 101° (E) 05:01:11 437.250
AO-7 23 Nov 04:57:42 05:04:19 27° 298° (WNW) 05:10:58 .
XW-2B 23 Nov 05:01:22 05:03:25 14° 95° (E) 05:05:27 145.730 - 145.750
NUDT-PHONESAT 23 Nov 05:08:04 05:08:46 10° 94° (E) 05:09:29 437.300
ITAMSAT 1 23 Nov 05:08:12 05:10:07 12° 295° (WNW) 05:12:01 435.822/435.867
CUTE-I 23 Nov 05:14:21 05:18:16 21° 96° (E) 05:22:10 437.470
KKS-1 23 Nov 05:21:55 05:25:20 22° 263° (W) 05:28:48 437.445
XW-2C 23 Nov 05:25:52 05:29:17 31° 98° (E) 05:32:42 145.795 - 145.815
LilacSat-2 23 Nov 05:30:26 05:34:04 40° 99° (E) 05:37:41 437.200
XW-2F 23 Nov 05:34:23 05:37:57 37° 99° (E) 05:41:30 145.980 - 146.000
YUBILEINY 23 Nov 05:35:21 05:44:00 68° 277° (W) 05:52:47 435.215
STARS 23 Nov 05:39:08 05:43:12 36° 261° (W) 05:47:16 437.465
STRAND 1 23 Nov 05:48:58 05:53:01 24° 69° (ENE) 05:57:03 437.568
RS-15 23 Nov 05:52:52 06:00:42 22° 259° (W) 06:08:22 29.354- 29.394
KAITUO 1B 23 Nov 05:58:16 06:02:01 63° 101° (E) 06:05:45 145.475/437.950
CUTE 1.7 + AOD 2 23 Nov 06:17:59 06:21:45 29° 98° (E) 06:25:29 437.475
XW-2D 23 Nov 06:19:05 06:22:41 40° 285° (WNW) 06:26:16 145.860 - 145.880
FO-29 23 Nov 06:27:58 06:32:16 18° 62° (ENE) 06:36:49 435.910
HO-68 23 Nov 06:31:32 06:38:26 49° 101° (E) 06:45:17 435.675
SO-50 23 Nov 06:32:04 06:36:45 83° 243° (WSW) 06:41:29 436.795
XW-2B 23 Nov 06:34:18 06:37:32 27° 287° (WNW) 06:40:47 145.730 - 145.750
NUDT-PHONESAT 23 Nov 06:39:17 06:42:39 33° 286° (WNW) 06:46:01 437.300
SEEDS 23 Nov 06:43:57 06:47:52 35° 98° (E) 06:51:46 437.485
AAUSAT CUBESAT 2 23 Nov 06:45:23 06:47:33 14° 94° (E) 06:49:43 437.432
CUTE-I 23 Nov 06:53:26 06:58:20 37° 289° (WNW) 07:03:12 437.470
UWE-3 23 Nov 06:53:26 06:56:40 22° 96° (E) 06:59:55 435.000/436.395/437.385
XW-2C 23 Nov 07:01:28 07:03:07 13° 290° (WNW) 07:04:46 145.795 - 145.815
LilacSat-2 23 Nov 07:07:41 07:07:53 10° 291° (WNW) 07:08:06 437.200
XW-2F 23 Nov 07:11:00 07:11:37 10° 291° (WNW) 07:12:15 145.980 - 146.000
FALCONSAT 3 23 Nov 07:18:40 07:22:02 35° 152° (SSE) 07:25:26 435.103
XW-2A 23 Nov 07:26:04 07:29:24 55° 100° (E) 07:32:43 145.665 - 145.685
STRAND 1 23 Nov 07:27:26 07:31:57 31° 262° (W) 07:36:29 437.568
AO-73 23 Nov 07:28:03 07:31:30 25° 97° (E) 07:34:58 145.935
CUBEBUG 2 23 Nov 07:37:08 07:41:07 47° 285° (WNW) 07:45:06 437.445
Oscar 11 23 Nov 07:41:58 07:45:30 24° 97° (E) 07:49:02 .
CUTE 1.7 + AOD 2 23 Nov 07:54:31 07:57:17 17° 290° (WNW) 08:00:04 437.475
FO-29 23 Nov 08:09:57 08:16:21 68° 259° (W) 08:23:37 435.910
ZACube-1 23 Nov 08:14:00 08:18:08 68° 284° (WNW) 08:22:19 437.345
AAUSAT CUBESAT 2 23 Nov 08:19:15 08:23:01 33° 286° (WNW) 08:26:47 437.432
HO-68 23 Nov 08:20:04 08:25:44 26° 295° (WNW) 08:31:24 435.675
SEEDS 23 Nov 08:20:57 08:23:10 14° 291° (WNW) 08:25:24 437.485
DELFI C3 23 Nov 08:29:25 08:31:39 15° 95° (E) 08:33:52 145.870
UWE-3 23 Nov 08:29:52 08:32:57 21° 288° (WNW) 08:36:04 435.000/436.395/437.385
PCSat 23 Nov 08:44:48 08:49:57 42° 62° (ENE) 08:55:03 145.827
FALCONSAT 3 23 Nov 08:57:25 09:01:03 58° 345° (NNW) 09:04:41 435.103
EO-88 23 Nov 08:58:44 09:00:47 14° 95° (E) 09:02:50 145.990 - 145.960
AO-73 23 Nov 09:04:37 09:07:31 19° 289° (WNW) 09:10:27 145.935
Max Valier Satellite 23 Nov 09:04:53 09:08:03 27° 98° (E) 09:11:13 145.860
UNISAT 6 23 Nov 09:11:51 09:16:27 74° 259° (WSW) 09:20:57 437.425
TIGRISAT 23 Nov 09:15:33 09:20:08 74° 259° (W) 09:24:38 435.000
Oscar 11 23 Nov 09:18:12 09:21:27 21° 289° (WNW) 09:24:41 .
PRISM 23 Nov 09:27:58 09:31:56 51° 75° (ENE) 09:35:58 437.425
DELFI C3 23 Nov 10:02:55 10:06:22 28° 287° (WNW) 10:09:47 145.870
EO-79 23 Nov 10:08:35 10:10:35 13° 69° (ENE) 10:12:35 145.935-145.965
NANOSAT C BR1 23 Nov 10:10:37 10:12:13 12° 68° (ENE) 10:13:48 145.865
AIST 2D 23 Nov 10:14:46 10:18:06 49° 76° (ENE) 10:21:27 435.315
POLYITAN 1 23 Nov 10:23:22 10:26:29 20° 71° (ENE) 10:29:35 437.675
PCSat 23 Nov 10:29:13 10:32:56 19° 255° (WSW) 10:36:38 145.827
EO-88 23 Nov 10:31:24 10:34:20 23° 287° (WNW) 10:37:18 145.990 - 145.960
FALCONSAT 3 23 Nov 10:37:01 10:40:28 36° 0° (N) 10:43:55 435.103
Max Valier Satellite 23 Nov 10:39:49 10:41:33 13° 290° (WNW) 10:43:18 145.860
QB50P2 23 Nov 10:45:50 10:49:52 43° 75° (ENE) 10:53:54 145.880/145.840
LO-87 23 Nov 10:47:30 10:50:54 45° 100° (E) 10:54:16 145.935 - 145.965
ESTCUBE 1 23 Nov 10:51:22 10:55:32 36° 98° (E) 10:59:42 437.505/2401.250
BEESAT 2 23 Nov 11:09:33 11:12:07 16° 54° (NE) 11:14:40 435.950
BEESAT 3 23 Nov 11:28:32 11:32:25 68° 244° (WSW) 11:36:13 437.485
DUCHIFAT 1 23 Nov 11:31:13 11:35:26 72° 259° (W) 11:39:38 145.980
SPROUT 23 Nov 11:39:44 11:43:20 27° 97° (E) 11:46:55 437.525
EO-79 23 Nov 11:42:00 11:45:57 38° 261° (W) 11:49:55 145.935-145.965
NANOSAT C BR1 23 Nov 11:43:29 11:47:29 42° 261° (W) 11:51:30 145.865
Gurwin Techsat 1B 23 Nov 11:48:40 11:51:33 15° 66° (ENE) 11:54:26 435.225
AO-85 23 Nov 11:48:44 11:52:26 21° 56° (NE) 11:56:17 145.980
POLYITAN 1 23 Nov 11:58:36 12:02:03 24° 263° (W) 12:05:30 437.675
BUGSAT 1 23 Nov 12:13:50 12:18:02 78° 77° (ENE) 12:22:12 437.445
FALCONSAT 3 23 Nov 12:16:13 12:19:52 61° 16° (NNE) 12:23:31 435.103
O/OREOS (USA 219) 23 Nov 12:20:54 12:25:28 75° 108° (ESE) 12:30:04 437.305
QB50P2 23 Nov 12:24:44 12:25:46 11° 266° (W) 12:26:50 145.880/145.840
ESTCUBE 1 23 Nov 12:29:13 12:31:59 16° 291° (WNW) 12:34:44 437.505/2401.250
VELOX 1 23 Nov 12:37:01 12:41:29 85° 105° (ESE) 12:45:54 145.980
Oscar 19 23 Nov 12:40:19 12:45:24 75° 76° (ENE) 12:50:31 437.125/150
BEESAT 2 23 Nov 12:46:20 12:49:52 31° 248° (WSW) 12:53:21 435.950
JUGNU 23 Nov 12:48:57 12:53:16 21° 168° (SSE) 12:57:33 437.505
NO-84 23 Nov 12:57:46 13:00:57 41° 125° (SE) 13:04:26 435.350 FM
M-CUBED/EXP-1 PRIME 23 Nov 13:09:24 13:12:09 21° 66° (ENE) 13:15:03 437.505
DX 1 23 Nov 13:14:36 13:18:46 43° 100° (E) 13:22:55 434.975-435.025
SPROUT 23 Nov 13:16:05 13:18:58 18° 290° (WNW) 13:21:51 437.525
50 SAT 23 Nov 13:23:37 13:26:50 74° 103° (ESE) 13:29:59 437.505
Gurwin Techsat 1B 23 Nov 13:25:48 13:30:58 54° 259° (W) 13:36:11 435.225
AO-85 23 Nov 13:28:21 13:32:53 38° 247° (WSW) 13:37:40 145.980
UKube-1 23 Nov 13:51:05 13:55:24 74° 101° (E) 13:59:42 .
FALCONSAT 3 23 Nov 13:55:30 13:58:51 33° 208° (SSW) 14:02:11 435.103
AO-7 23 Nov 13:56:47 14:04:34 48° 67° (ENE) 14:12:23 .
MOZHAYETS 4 23 Nov 14:09:09 14:12:13 18° 95° (E) 14:15:19
BEESAT 23 Nov 14:10:37 14:12:49 13° 94° (E) 14:15:00 436.000
ITUPSAT 1 23 Nov 14:21:15 14:24:23 17° 95° (E) 14:27:32 437.325
NO-84 23 Nov 14:36:15 14:38:28 15° 322° (NW) 14:40:47 435.350 FM
JUGNU 23 Nov 14:36:46 14:41:46 28° 177° (S) 14:46:42 437.505
ITAMSAT 1 23 Nov 14:38:21 14:43:26 56° 74° (ENE) 14:48:33 435.822/435.867
SRMSAT 23 Nov 14:39:28 14:42:21 14° 162° (SSE) 14:45:15 437.500
M-CUBED/EXP-1 PRIME 23 Nov 14:44:13 14:46:29 16° 261° (W) 14:48:50 437.505
DX 1 23 Nov 14:52:39 14:54:30 13° 293° (WNW) 14:56:21 434.975-435.025
MOZHAYETS 4 23 Nov 15:45:19 15:49:21 32° 288° (WNW) 15:53:24
RS-15 23 Nov 15:46:08 15:53:02 17° 99° (E) 15:59:56 29.354- 29.394
BEESAT 23 Nov 15:46:12 15:50:44 46° 286° (WNW) 15:55:15 436.000
DOVE 4 23 Nov 15:50:07 15:54:51 45° 74° (ENE) 15:59:48 437.250
AO-7 23 Nov 15:50:20 15:57:21 31° 261° (W) 16:04:28 .
YUBILEINY 23 Nov 15:52:42 16:01:10 48° 79° (E) 16:09:32 435.215
ITUPSAT 1 23 Nov 15:57:55 16:02:14 35° 288° (WNW) 16:06:32 437.325
CUBESAT XI-V 23 Nov 16:03:21 16:08:04 80° 103° (ESE) 16:12:46 437.345
ITAMSAT 1 23 Nov 16:20:47 16:23:08 13° 266° (W) 16:25:28 435.822/435.867
JUGNU 23 Nov 16:25:30 16:30:16 26° 188° (S) 16:35:01 437.505
SRMSAT 23 Nov 16:26:14 16:30:57 25° 171° (S) 16:35:40 437.500
CUTE-I 23 Nov 16:30:55 16:34:46 20° 68° (ENE) 16:38:37 437.470
KAITUO 1B 23 Nov 16:34:29 16:36:01 12° 70° (ENE) 16:37:33 145.475/437.950
XW-2D 23 Nov 16:54:25 16:57:51 36° 74° (ENE) 17:01:17 145.860 - 145.880
HO-68 23 Nov 16:55:46 17:00:44 21° 63° (ENE) 17:05:43 435.675
CUTE 1.7 + AOD 2 23 Nov 17:07:56 17:08:39 10° 68° (ENE) 17:09:21 437.475
XW-2B 23 Nov 17:09:06 17:12:44 56° 77° (ENE) 17:16:25 145.730 - 145.750
NUDT-PHONESAT 23 Nov 17:12:13 17:15:37 39° 75° (ENE) 17:19:02 437.300
KKS-1 23 Nov 17:17:06 17:21:33 73° 284° (WNW) 17:25:57 437.445
DOVE 4 23 Nov 17:29:39 17:32:41 16° 268° (W) 17:35:47 437.250
SEEDS 23 Nov 17:32:00 17:33:39 12° 69° (ENE) 17:35:18 437.485
STARS 23 Nov 17:33:30 17:37:50 61° 101° (E) 17:42:08 437.465
XW-2C 23 Nov 17:34:52 17:38:31 56° 260° (W) 17:42:12 145.795 - 145.815
nSIGHT-1 23 Nov 17:39:12 17:40:34 12° 126° (SE) 17:41:56 .
LilacSat-2 23 Nov 17:40:28 17:44:01 42° 261° (W) 17:47:36 437.200
XW-2F 23 Nov 17:43:02 17:46:36 46° 261° (W) 17:50:12 145.980 - 146.000
YUBILEINY 23 Nov 17:50:12 17:57:28 30° 275° (W) 18:04:44 435.215
RS-15 23 Nov 17:51:32 18:03:48 87° 114° (ESE) 18:16:11 29.354- 29.394
KAITUO 1B 23 Nov 18:06:28 18:09:39 28° 262° (W) 18:12:53 145.475/437.950
STRAND 1 23 Nov 18:06:38 18:08:33 12° 93° (E) 18:10:28 437.568
CUTE-I 23 Nov 18:09:29 18:14:27 39° 261° (W) 18:19:28 437.470
SRMSAT 23 Nov 18:14:34 18:19:37 29° 181° (S) 18:24:41 437.500
JUGNU 23 Nov 18:15:25 18:18:42 15° 196° (SSW) 18:21:58 437.505
AO-73 23 Nov 18:21:04 18:21:27 10° 68° (ENE) 18:21:50 145.935
CUBEBUG 2 23 Nov 18:28:40 18:33:14 66° 77° (ENE) 18:37:41 437.445
ISS 23 Nov 18:30:22 18:33:29 41° 130° (SE) 18:36:35 437.550
CUTE 1.7 + AOD 2 23 Nov 18:39:57 18:43:59 47° 261° (W) 18:48:02 437.475
HO-68 23 Nov 18:40:43 18:47:49 63° 257° (WSW) 18:54:57 435.675
AAUSAT CUBESAT 2 23 Nov 19:02:48 19:06:53 70° 77° (ENE) 19:11:00 437.432
ZACube-1 23 Nov 19:03:54 19:08:00 43° 75° (ENE) 19:12:02 437.345
SEEDS 23 Nov 19:05:00 19:08:54 39° 262° (W) 19:12:49 437.485
nSIGHT-1 23 Nov 19:13:29 19:16:30 37° 318° (NW) 19:19:31 .
UWE-3 23 Nov 19:19:45 19:24:08 55° 260° (W) 19:28:25 435.000/436.395/437.385
XW-2A 23 Nov 19:23:55 19:27:02 39° 261° (W) 19:30:10 145.665 - 145.685
FO-29 23 Nov 19:26:45 19:33:02 27° 94° (E) 19:38:52 435.910
STRAND 1 23 Nov 19:42:59 19:47:58 56° 286° (WNW) 19:52:56 437.568
AO-73 23 Nov 19:53:01 19:57:13 50° 260° (W) 20:01:20 145.935
SRMSAT 23 Nov 20:03:45 20:08:17 23° 191° (S) 20:12:49 437.500
Oscar 11 23 Nov 20:06:05 20:10:16 55° 260° (W) 20:14:30 .
RS-15 23 Nov 20:08:08 20:17:50 26° 316° (NW) 20:27:33 29.354- 29.394
ISS 23 Nov 20:08:09 20:10:05 15° 325° (NW) 20:12:01 437.550
SO-50 23 Nov 20:40:49 20:45:14 66° 299° (WNW) 20:49:42 436.795
DELFI C3 23 Nov 20:41:30 20:45:25 67° 76° (ENE) 20:49:22 145.870
ZACube-1 23 Nov 20:43:01 20:44:22 11° 266° (W) 20:45:43 437.345
EO-88 23 Nov 21:02:25 21:05:56 54° 76° (ENE) 21:09:29 145.990 - 145.960
UNISAT 6 23 Nov 21:09:21 21:13:13 33° 98° (E) 21:17:04 437.425
Max Valier Satellite 23 Nov 21:10:52 21:14:30 69° 259° (W) 21:18:08 145.860
NO-84 23 Nov 21:11:50 21:15:36 30° 44° (NE) 21:19:20 435.350 FM
PRISM 23 Nov 21:17:11 21:18:14 11° 94° (E) 21:19:17 437.425
